RYR23ME GCTS-EPMO

Flight info

Callsign RYR23ME
Flight time N/A
Altitude 34000
Route KORAL UG5 SONSO DCT NIRAL UN871 OSDAM UM985 BARPA DCT XAVIR DCT PIMOS DCT RIXUR DCT PEPAS DCT ARPEX DCT KOSEL DCT BUDIT DCT ETURA DCT TOSTO DCT OLPOS DCT BEGOX DCT LASPO DCT SOPET DCT DIKUT DCT TORDU DCT LOTOS DCT EBROX DCT PEXOT/N0440F360 DCT RODRA DCT BCN DCT SALON DCT AGENA DCT BODEQ DCT LUMAS DCT UNANA DCT STP DCT RAPED DCT PIGOS DCT EKSID DCT NOSTA DCT EGHIN DCT MALUG/N0441F370 DCT UPEGU DCT ENORU DCT VAGSA DCT LUNUK N871 OKENO Q277 GOGUS
Aircraft B738/M-SDE2E3FGHIRWXY/LB1

Departure

Time N/A
Airport Tenerife Sur Airport (GCTS)

Arrival

Time 2026-04-23 18:51
Airport Warsaw Modlin Airport (EPMO)
Time Latitude Longitude Altitude Speed Heading
2026-04-23 16:09 40.67827 1.18757 36167 ft 476 kts 44°
2026-04-23 16:10 40.72289 1.25203 36154 ft 476 kts 44°
2026-04-23 16:10 40.76755 1.31653 36164 ft 476 kts 44°
2026-04-23 16:11 40.81213 1.38106 36164 ft 476 kts 44°
2026-04-23 16:11 40.85668 1.44568 36158 ft 476 kts 44°
2026-04-23 16:12 40.90106 1.51031 36171 ft 476 kts 44°
2026-04-23 16:12 40.94549 1.57525 36176 ft 475 kts 44°
2026-04-23 16:13 40.98946 1.63963 36163 ft 474 kts 44°
2026-04-23 16:13 41.05549 1.73656 36168 ft 472 kts 44°
2026-04-23 16:14 41.09246 1.79088 36168 ft 472 kts 44°
2026-04-23 16:14 41.13637 1.85548 36173 ft 472 kts 44°
2026-04-23 16:15 41.18013 1.92002 36196 ft 471 kts 44°
2026-04-23 16:15 41.22403 1.98493 36183 ft 471 kts 44°
2026-04-23 16:16 41.26777 2.04971 36183 ft 470 kts 44°
2026-04-23 16:16 41.30540 2.12125 36189 ft 479 kts 60°
2026-04-23 16:17 41.32612 2.20590 36199 ft 485 kts 73°
2026-04-23 16:17 41.34090 2.29374 36204 ft 486 kts 74°
2026-04-23 16:18 41.35575 2.38143 36191 ft 486 kts 73°
2026-04-23 16:18 41.37107 2.46917 36178 ft 486 kts 73°
2026-04-23 16:19 41.38638 2.55621 36188 ft 486 kts 73°
2026-04-23 16:19 41.40176 2.64400 36180 ft 486 kts 73°
2026-04-23 16:20 41.41702 2.73172 36194 ft 486 kts 73°
2026-04-23 16:20 41.43231 2.82009 36187 ft 486 kts 73°
2026-04-23 16:21 41.44731 2.90723 36190 ft 486 kts 73°
2026-04-23 16:21 41.46236 2.99504 36191 ft 486 kts 73°
2026-04-23 16:22 41.47735 3.08294 36201 ft 486 kts 73°
2026-04-23 16:22 41.49228 3.17082 36194 ft 485 kts 73°
2026-04-23 16:23 41.50700 3.25863 36196 ft 485 kts 73°
2026-04-23 16:23 41.52154 3.34658 36208 ft 485 kts 73°
2026-04-23 16:24 41.53605 3.43448 36193 ft 485 kts 73°
2026-04-23 16:24 41.55052 3.52239 36194 ft 485 kts 73°
2026-04-23 16:25 41.56504 3.61017 36204 ft 484 kts 73°
2026-04-23 16:25 41.57953 3.69805 36200 ft 484 kts 73°
2026-04-23 16:26 41.59393 3.78591 36198 ft 484 kts 73°
2026-04-23 16:26 41.60826 3.87381 36210 ft 485 kts 73°
2026-04-23 16:27 41.62240 3.96174 36195 ft 485 kts 73°
2026-04-23 16:27 41.63649 4.05009 36199 ft 485 kts 73°
2026-04-23 16:28 41.65049 4.13828 36188 ft 485 kts 72°
2026-04-23 16:28 41.66425 4.22650 36224 ft 484 kts 73°
2026-04-23 16:29 41.67818 4.31449 36201 ft 484 kts 73°
2026-04-23 16:29 41.69208 4.40265 36211 ft 484 kts 73°
2026-04-23 16:30 41.70581 4.49081 36198 ft 484 kts 73°
2026-04-23 16:30 41.71948 4.57910 36218 ft 484 kts 73°
2026-04-23 16:31 41.74052 4.66255 36206 ft 469 kts 55°
2026-04-23 16:31 41.77932 4.73063 36203 ft 455 kts 39°
2026-04-23 16:32 41.82478 4.78953 36200 ft 455 kts 38°
2026-04-23 16:32 41.87031 4.84854 36202 ft 455 kts 38°
2026-04-23 16:33 41.91559 4.90805 36211 ft 455 kts 39°
2026-04-23 16:33 41.96063 4.96777 36222 ft 455 kts 39°
2026-04-23 16:34 42.00561 5.02761 36206 ft 455 kts 39°
2026-04-23 16:34 42.05053 5.08749 36203 ft 454 kts 39°
2026-04-23 16:35 42.09538 5.14738 36219 ft 454 kts 38°
2026-04-23 16:35 42.14013 5.20726 36205 ft 454 kts 39°
2026-04-23 16:36 42.18484 5.26721 36207 ft 453 kts 39°
2026-04-23 16:36 42.22949 5.32720 36206 ft 453 kts 39°
2026-04-23 16:37 42.27407 5.38723 36204 ft 453 kts 38°
2026-04-23 16:37 42.31855 5.44725 36213 ft 452 kts 38°
2026-04-23 16:38 42.36295 5.50729 36207 ft 451 kts 38°
2026-04-23 16:38 42.40730 5.56740 36215 ft 451 kts 38°
2026-04-23 16:39 42.45160 5.62755 36216 ft 451 kts 38°
2026-04-23 16:39 42.49581 5.68771 36220 ft 450 kts 38°
2026-04-23 16:40 42.53998 5.74794 36217 ft 451 kts 39°
2026-04-23 16:40 42.58412 5.80827 36215 ft 450 kts 39°
2026-04-23 16:41 42.62821 5.86867 36211 ft 450 kts 39°
2026-04-23 16:41 42.67187 5.92860 36212 ft 450 kts 39°
2026-04-23 16:42 42.71580 5.98901 36210 ft 450 kts 39°
2026-04-23 16:42 42.75982 6.04971 36211 ft 450 kts 39°
2026-04-23 16:43 42.80373 6.11036 36223 ft 450 kts 39°
2026-04-23 16:43 42.84758 6.17105 36211 ft 450 kts 39°
2026-04-23 16:44 42.89367 6.22807 36194 ft 445 kts 34°
2026-04-23 16:44 42.94145 6.28158 36190 ft 444 kts 34°
2026-04-23 16:45 42.98887 6.33521 36194 ft 444 kts 34°
2026-04-23 16:45 43.03619 6.38966 36192 ft 444 kts 35°
2026-04-23 16:46 43.08337 6.44431 36196 ft 444 kts 35°
2026-04-23 16:46 43.13055 6.49907 36197 ft 445 kts 36°
2026-04-23 16:47 43.17782 6.55401 36177 ft 446 kts 36°
2026-04-23 16:47 43.22396 6.61093 36198 ft 450 kts 44°
2026-04-23 16:48 43.26164 6.68030 36197 ft 455 kts 51°
2026-04-23 16:48 43.29792 6.75045 36192 ft 455 kts 51°
2026-04-23 16:49 43.33526 6.82147 36196 ft 455 kts 50°
2026-04-23 16:49 43.37237 6.89173 36199 ft 455 kts 52°
2026-04-23 16:50 43.40920 6.96188 36187 ft 455 kts 52°
2026-04-23 16:50 43.44616 7.03253 36183 ft 455 kts 52°
2026-04-23 16:51 43.48302 7.10318 36187 ft 454 kts 52°
2026-04-23 16:51 43.51977 7.17374 36189 ft 454 kts 53°
2026-04-23 16:52 43.55659 7.24462 36189 ft 454 kts 53°
2026-04-23 16:52 43.59335 7.31555 36194 ft 454 kts 53°
2026-04-23 16:53 43.63008 7.38656 36189 ft 454 kts 53°
2026-04-23 16:53 43.66674 7.45752 36192 ft 454 kts 53°
2026-04-23 16:54 43.70335 7.52855 36199 ft 454 kts 54°
2026-04-23 16:54 43.73997 7.59976 36204 ft 454 kts 54°
2026-04-23 16:55 43.77641 7.67099 36190 ft 453 kts 54°
2026-04-23 16:55 43.81255 7.74222 36197 ft 452 kts 54°
2026-04-23 16:56 43.84876 7.81328 36177 ft 452 kts 54°
2026-04-23 16:56 43.88516 7.88437 36170 ft 451 kts 54°
2026-04-23 16:57 43.92134 7.95525 36169 ft 451 kts 54°
2026-04-23 16:57 43.95749 8.02632 36162 ft 450 kts 54°
2026-04-23 16:58 43.99347 8.09726 36156 ft 449 kts 55°
2026-04-23 16:58 44.02933 8.16813 36156 ft 447 kts 55°
2026-04-23 16:59 44.06548 8.23744 36152 ft 447 kts 50°
2026-04-23 16:59 44.10700 8.30191 36160 ft 446 kts 47°
2026-04-23 17:00 44.14930 8.36516 36172 ft 446 kts 47°
2026-04-23 17:00 44.19128 8.42874 36170 ft 446 kts 48°
2026-04-23 17:01 44.23294 8.49271 36170 ft 445 kts 48°
2026-04-23 17:01 44.26743 8.54599 36175 ft 445 kts 48°
2026-04-23 17:02 44.30893 8.61030 36158 ft 445 kts 49°
2026-04-23 17:02 44.35032 8.67457 36163 ft 445 kts 49°
2026-04-23 17:03 44.39173 8.73899 36172 ft 445 kts 49°
2026-04-23 17:03 44.43301 8.80337 36158 ft 445 kts 49°
2026-04-23 17:04 44.47442 8.86808 36158 ft 445 kts 49°
2026-04-23 17:04 44.51565 8.93266 36156 ft 445 kts 49°
2026-04-23 17:05 44.55687 8.99737 36165 ft 445 kts 49°
2026-04-23 17:05 44.59802 9.06213 36168 ft 445 kts 49°
2026-04-23 17:06 44.63910 9.12693 36178 ft 445 kts 49°
2026-04-23 17:06 44.68016 9.19184 36173 ft 442 kts 49°
2026-04-23 17:07 44.72092 9.25641 36165 ft 441 kts 49°
2026-04-23 17:07 44.76151 9.32088 36160 ft 440 kts 49°
2026-04-23 17:08 44.80203 9.38538 36146 ft 439 kts 49°
2026-04-23 17:08 44.84239 9.44978 36138 ft 438 kts 49°
2026-04-23 17:09 44.88264 9.51416 36132 ft 438 kts 49°
2026-04-23 17:09 44.92263 9.57825 36148 ft 437 kts 49°
2026-04-23 17:10 44.96270 9.64262 36126 ft 436 kts 49°
2026-04-23 17:10 45.00272 9.70706 36145 ft 435 kts 49°
2026-04-23 17:11 45.04254 9.77134 36147 ft 435 kts 49°
2026-04-23 17:11 45.08234 9.83572 36143 ft 434 kts 49°
2026-04-23 17:12 45.12203 9.90007 36141 ft 434 kts 49°
2026-04-23 17:12 45.16169 9.96452 36133 ft 434 kts 49°
2026-04-23 17:13 45.20146 10.02929 36140 ft 434 kts 49°
2026-04-23 17:13 45.24107 10.09397 36148 ft 435 kts 49°
2026-04-23 17:14 45.28074 10.15889 36135 ft 435 kts 49°
2026-04-23 17:14 45.32032 10.22381 36127 ft 435 kts 49°
2026-04-23 17:15 45.35984 10.28878 36131 ft 434 kts 49°
2026-04-23 17:15 45.39927 10.35375 36131 ft 433 kts 49°
2026-04-23 17:16 45.43858 10.41868 36132 ft 433 kts 49°
2026-04-23 17:16 45.47785 10.48371 36132 ft 433 kts 49°
2026-04-23 17:17 45.51707 10.54880 36139 ft 432 kts 49°
2026-04-23 17:17 45.55616 10.61382 36144 ft 431 kts 49°
2026-04-23 17:18 45.61447 10.71109 36136 ft 429 kts 49°
2026-04-23 17:19 45.65316 10.77581 36144 ft 428 kts 49°
2026-04-23 17:19 45.69170 10.84045 36146 ft 428 kts 49°
2026-04-23 17:20 45.73031 10.90535 36149 ft 428 kts 49°
2026-04-23 17:21 45.80740 11.03537 36144 ft 428 kts 49°
2026-04-23 17:21 45.86500 11.13295 36165 ft 427 kts 49°
2026-04-23 17:22 45.92263 11.23087 36151 ft 428 kts 49°
2026-04-23 17:23 45.98018 11.32906 36152 ft 428 kts 49°
2026-04-23 17:24 46.03765 11.42742 36144 ft 429 kts 49°
2026-04-23 17:24 46.09514 11.52619 36130 ft 428 kts 49°
2026-04-23 17:25 46.15214 11.62446 36130 ft 428 kts 49°
2026-04-23 17:26 46.22836 11.75640 36133 ft 428 kts 49°
2026-04-23 17:27 46.28540 11.85555 36133 ft 427 kts 49°
2026-04-23 17:27 46.32330 11.92164 36116 ft 428 kts 49°
2026-04-23 17:28 46.36126 11.98799 36114 ft 428 kts 50°
2026-04-23 17:28 46.39900 12.05410 36133 ft 426 kts 50°
2026-04-23 17:29 46.43682 12.12053 36138 ft 427 kts 50°
2026-04-23 17:30 46.48706 12.20901 36172 ft 426 kts 50°
2026-04-23 17:30 46.54968 12.31968 36176 ft 425 kts 50°
2026-04-23 17:31 46.58710 12.38605 36182 ft 424 kts 50°
2026-04-23 17:31 46.62444 12.45243 36198 ft 424 kts 50°
2026-04-23 17:32 46.66178 12.51895 36185 ft 424 kts 50°
2026-04-23 17:32 46.70064 12.58334 36161 ft 424 kts 41°
2026-04-23 17:33 46.74888 12.63231 36178 ft 424 kts 29°
2026-04-23 17:33 46.80127 12.67210 36153 ft 425 kts 28°
2026-04-23 17:34 46.85365 12.71180 36170 ft 424 kts 29°
2026-04-23 17:35 46.93184 12.77185 36185 ft 423 kts 29°
2026-04-23 17:35 47.00993 12.83234 36191 ft 423 kts 29°
2026-04-23 17:36 47.06199 12.87279 36197 ft 424 kts 29°
2026-04-23 17:36 47.11402 12.91331 36201 ft 422 kts 30°
2026-04-23 17:37 47.16573 12.95366 36226 ft 421 kts 30°
2026-04-23 17:38 47.24290 13.01406 36211 ft 420 kts 30°
2026-04-23 17:38 47.29443 13.05449 36208 ft 419 kts 30°
2026-04-23 17:39 47.34586 13.09493 36219 ft 418 kts 30°
2026-04-23 17:39 47.39710 13.13532 36222 ft 417 kts 30°
2026-04-23 17:40 47.44821 13.17570 36228 ft 417 kts 30°
2026-04-23 17:40 47.49924 13.21610 36195 ft 416 kts 30°
2026-04-23 17:41 47.55012 13.25648 36227 ft 415 kts 30°
2026-04-23 17:41 47.62645 13.31722 36225 ft 416 kts 31°
2026-04-23 17:42 47.70301 13.37833 36216 ft 417 kts 31°
2026-04-23 17:43 47.75401 13.41918 36221 ft 418 kts 31°
2026-04-23 17:43 47.80535 13.46037 36227 ft 419 kts 31°
2026-04-23 17:44 47.85671 13.50168 36216 ft 420 kts 31°
2026-04-23 17:44 47.93381 13.56385 36206 ft 420 kts 31°
2026-04-23 17:45 48.01084 13.62619 36212 ft 420 kts 31°
2026-04-23 17:46 48.08779 13.68868 36205 ft 420 kts 31°
2026-04-23 17:46 48.13042 13.72339 36208 ft 419 kts 31°
2026-04-23 17:47 48.18156 13.76512 36203 ft 419 kts 31°
2026-04-23 17:48 48.25843 13.82802 36202 ft 419 kts 31°
2026-04-23 17:48 48.30939 13.86984 36208 ft 417 kts 31°
2026-04-23 17:49 48.36001 13.91147 36184 ft 415 kts 31°
2026-04-23 17:49 48.41078 13.95332 36190 ft 414 kts 31°
2026-04-23 17:50 48.46131 13.99509 36450 ft 413 kts 31°
2026-04-23 17:50 48.51151 14.03665 36895 ft 411 kts 31°
2026-04-23 17:50 48.53649 14.05738 37010 ft 412 kts 31°
2026-04-23 17:51 48.56164 14.07827 37142 ft 412 kts 31°
2026-04-23 17:51 48.58677 14.09917 37183 ft 413 kts 31°
2026-04-23 17:52 48.66191 14.16178 37171 ft 408 kts 31°
2026-04-23 17:52 48.73573 14.22351 37180 ft 402 kts 31°
2026-04-23 17:53 48.80895 14.28496 37180 ft 400 kts 31°
2026-04-23 17:54 48.85764 14.32593 37170 ft 400 kts 31°
2026-04-23 17:54 48.93070 14.38760 37169 ft 401 kts 31°
2026-04-23 17:55 49.00398 14.44964 37163 ft 403 kts 31°
2026-04-23 17:56 49.05082 14.49669 37154 ft 403 kts 42°
2026-04-23 17:56 49.11253 14.58396 37165 ft 404 kts 43°
2026-04-23 17:57 49.15380 14.64229 37159 ft 405 kts 42°
2026-04-23 17:58 49.21558 14.72944 37157 ft 405 kts 42°
2026-04-23 17:58 49.25729 14.78838 37152 ft 405 kts 42°
2026-04-23 17:59 49.29855 14.84680 37165 ft 405 kts 42°
2026-04-23 17:59 49.33989 14.90549 37150 ft 404 kts 42°
2026-04-23 18:00 49.38103 14.96404 37151 ft 403 kts 42°
2026-04-23 18:00 49.42207 15.02257 37151 ft 402 kts 42°
2026-04-23 18:01 49.46304 15.08115 37147 ft 402 kts 42°
2026-04-23 18:01 49.50391 15.13974 37151 ft 402 kts 42°
2026-04-23 18:02 49.54447 15.19800 37152 ft 402 kts 42°
2026-04-23 18:02 49.58530 15.25680 37144 ft 401 kts 42°
2026-04-23 18:03 49.62606 15.31564 37144 ft 401 kts 42°
2026-04-23 18:03 49.66675 15.37453 37146 ft 401 kts 41°
2026-04-23 18:04 49.70743 15.43354 37145 ft 401 kts 41°
2026-04-23 18:04 49.74812 15.49271 37146 ft 402 kts 42°
2026-04-23 18:05 49.78881 15.55201 37149 ft 402 kts 42°
2026-04-23 18:05 49.82949 15.61146 37149 ft 402 kts 41°
2026-04-23 18:06 49.87012 15.67098 37151 ft 402 kts 41°
2026-04-23 18:06 49.91069 15.73054 37144 ft 402 kts 41°
2026-04-23 18:07 49.95129 15.79029 37104 ft 402 kts 41°
2026-04-23 18:07 49.99176 15.85001 37103 ft 401 kts 41°
2026-04-23 18:08 50.02534 15.89966 37100 ft 401 kts 41°
2026-04-23 18:08 50.07251 15.96960 37133 ft 401 kts 41°
2026-04-23 18:09 50.11258 16.02914 37126 ft 400 kts 41°
2026-04-23 18:09 50.15311 16.08955 37127 ft 401 kts 41°
2026-04-23 18:10 50.19336 16.14966 37132 ft 400 kts 41°
2026-04-23 18:10 50.23353 16.20982 37117 ft 401 kts 41°
2026-04-23 18:11 50.27371 16.27013 37132 ft 400 kts 41°
2026-04-23 18:11 50.31357 16.33010 37124 ft 400 kts 41°
2026-04-23 18:12 50.35462 16.38861 37133 ft 398 kts 36°
2026-04-23 18:12 50.39909 16.44034 37139 ft 398 kts 34°
2026-04-23 18:13 50.44381 16.49155 37126 ft 398 kts 34°
2026-04-23 18:13 50.48828 16.54310 37131 ft 397 kts 34°
2026-04-23 18:14 50.53228 16.59566 37119 ft 399 kts 39°
2026-04-23 18:14 50.56925 16.66085 37125 ft 401 kts 46°
2026-04-23 18:15 50.60490 16.72867 37126 ft 401 kts 46°
2026-04-23 18:15 50.64056 16.79623 37125 ft 401 kts 46°
2026-04-23 18:16 50.67628 16.86373 37117 ft 402 kts 46°
2026-04-23 18:16 50.71210 16.93144 37116 ft 402 kts 46°
2026-04-23 18:17 50.76587 17.03335 37109 ft 402 kts 46°
2026-04-23 18:17 50.80159 17.10127 37114 ft 402 kts 46°
2026-04-23 18:18 50.83735 17.16945 37109 ft 403 kts 46°
2026-04-23 18:18 50.87315 17.23789 37106 ft 403 kts 46°
2026-04-23 18:19 50.90855 17.30575 37106 ft 402 kts 46°
2026-04-23 18:19 50.94422 17.37430 37102 ft 402 kts 46°
2026-04-23 18:20 50.97976 17.44280 37106 ft 402 kts 46°
2026-04-23 18:20 51.01525 17.51136 37094 ft 402 kts 46°
2026-04-23 18:21 51.05069 17.58002 37093 ft 402 kts 46°
2026-04-23 18:21 51.08612 17.64883 37093 ft 402 kts 46°
2026-04-23 18:22 51.12146 17.71767 37090 ft 402 kts 46°
2026-04-23 18:22 51.15677 17.78662 37080 ft 402 kts 46°
2026-04-23 18:23 51.20966 17.89027 37100 ft 402 kts 45°
2026-04-23 18:24 51.24499 17.95971 36795 ft 404 kts 45°
2026-04-23 18:24 51.26263 17.99447 36553 ft 401 kts 45°
2026-04-23 18:24 51.28013 18.02902 36274 ft 400 kts 45°
2026-04-23 18:25 51.31519 18.09833 35773 ft 401 kts 45°
2026-04-23 18:25 51.33273 18.13304 35527 ft 401 kts 45°
2026-04-23 18:25 51.35022 18.16773 35290 ft 401 kts 45°
2026-04-23 18:25 51.36774 18.20253 35049 ft 402 kts 45°
2026-04-23 18:26 51.38521 18.23729 35082 ft 400 kts 45°
2026-04-23 18:26 51.42026 18.30709 35067 ft 404 kts 45°
2026-04-23 18:27 51.45546 18.37742 35058 ft 405 kts 45°
2026-04-23 18:27 51.49064 18.44792 35058 ft 405 kts 45°
2026-04-23 18:28 51.52575 18.51848 35053 ft 405 kts 45°
2026-04-23 18:28 51.56089 18.58929 35053 ft 405 kts 45°
2026-04-23 18:29 51.59599 18.66019 35057 ft 406 kts 45°
2026-04-23 18:29 51.63112 18.73136 35048 ft 406 kts 45°
2026-04-23 18:30 51.66616 18.80256 35047 ft 405 kts 45°
2026-04-23 18:30 51.70114 18.87383 35042 ft 405 kts 45°
2026-04-23 18:31 51.73603 18.94511 34608 ft 406 kts 44°
2026-04-23 18:31 51.75373 18.98126 33723 ft 411 kts 44°
2026-04-23 18:31 51.77151 19.01768 32810 ft 413 kts 44°
2026-04-23 18:31 51.78326 19.04180 32318 ft 413 kts 44°
2026-04-23 18:32 51.80102 19.07830 31546 ft 413 kts 44°
2026-04-23 18:32 51.81877 19.11486 30781 ft 414 kts 44°
2026-04-23 18:32 51.83650 19.15140 29984 ft 415 kts 45°
2026-04-23 18:32 51.85443 19.18838 29027 ft 416 kts 45°
2026-04-23 18:33 51.87223 19.22517 28141 ft 416 kts 45°
2026-04-23 18:33 51.89010 19.26216 27314 ft 415 kts 45°
2026-04-23 18:33 51.90772 19.29876 26691 ft 410 kts 45°
2026-04-23 18:33 51.92515 19.33499 26051 ft 406 kts 45°
2026-04-23 18:34 51.94248 19.37105 25410 ft 404 kts 45°
2026-04-23 18:34 51.95970 19.40690 24785 ft 400 kts 45°
2026-04-23 18:34 51.97673 19.44241 24164 ft 400 kts 45°
2026-04-23 18:34 51.99404 19.47842 23516 ft 410 kts 46°
2026-04-23 18:35 52.01172 19.51523 22753 ft 412 kts 46°
2026-04-23 18:35 52.02895 19.55133 22084 ft 408 kts 46°
2026-04-23 18:35 52.04617 19.58752 21455 ft 402 kts 46°
2026-04-23 18:35 52.06317 19.62327 20822 ft 398 kts 46°
2026-04-23 18:36 52.07991 19.65851 20202 ft 393 kts 46°
2026-04-23 18:36 52.09662 19.69372 19611 ft 389 kts 46°
2026-04-23 18:36 52.11302 19.72829 19002 ft 386 kts 46°
2026-04-23 18:36 52.12936 19.76275 18379 ft 384 kts 46°
2026-04-23 18:37 52.14569 19.79724 17703 ft 381 kts 47°
2026-04-23 18:37 52.16180 19.83133 17051 ft 377 kts 47°
2026-04-23 18:37 52.17773 19.86509 16437 ft 374 kts 47°
2026-04-23 18:37 52.19344 19.89844 15844 ft 370 kts 47°
2026-04-23 18:38 52.20901 19.93153 15257 ft 366 kts 47°
2026-04-23 18:38 52.22444 19.96435 14681 ft 363 kts 47°
2026-04-23 18:38 52.23977 19.99699 14089 ft 360 kts 47°
2026-04-23 18:38 52.25497 20.02940 13487 ft 358 kts 47°
2026-04-23 18:39 52.26998 20.06144 12861 ft 355 kts 47°
2026-04-23 18:39 52.28495 20.09346 12273 ft 352 kts 47°
2026-04-23 18:39 52.29972 20.12507 11737 ft 349 kts 47°
2026-04-23 18:39 52.31425 20.15626 11507 ft 344 kts 47°
2026-04-23 18:40 52.32901 20.18784 11285 ft 354 kts 47°
2026-04-23 18:40 52.34406 20.22010 11044 ft 359 kts 47°
2026-04-23 18:40 52.35917 20.25260 10793 ft 357 kts 48°
2026-04-23 18:40 52.37417 20.28495 10534 ft 356 kts 48°
2026-04-23 18:41 52.38912 20.31723 10301 ft 355 kts 48°
2026-04-23 18:41 52.40401 20.34941 10060 ft 354 kts 48°
2026-04-23 18:41 52.41885 20.38152 9813 ft 353 kts 48°
2026-04-23 18:41 52.43364 20.41355 9362 ft 352 kts 48°
2026-04-23 18:42 52.44827 20.44529 8818 ft 347 kts 48°
2026-04-23 18:42 52.46255 20.47631 8268 ft 343 kts 48°
2026-04-23 18:42 52.47684 20.50736 7694 ft 340 kts 48°
2026-04-23 18:42 52.49103 20.53822 7147 ft 337 kts 48°
2026-04-23 18:43 52.50510 20.56886 6611 ft 334 kts 48°
2026-04-23 18:43 52.51886 20.59890 6190 ft 327 kts 48°
2026-04-23 18:43 52.53156 20.62976 5878 ft 328 kts 59°
2026-04-23 18:43 52.53754 20.66606 5631 ft 330 kts 76°
2026-04-23 18:44 52.54067 20.70279 5369 ft 321 kts 76°
2026-04-23 18:44 52.54373 20.73856 5103 ft 309 kts 76°
2026-04-23 18:44 52.54674 20.77251 4824 ft 293 kts 75°
2026-04-23 18:44 52.54966 20.80482 4633 ft 276 kts 75°
2026-04-23 18:45 52.55238 20.83492 4584 ft 256 kts 74°
2026-04-23 18:45 52.55489 20.86267 4600 ft 237 kts 74°
2026-04-23 18:45 52.55722 20.88851 4581 ft 220 kts 73°
2026-04-23 18:45 52.55931 20.91284 4587 ft 214 kts 78°
2026-04-23 18:46 52.55598 20.93702 4598 ft 229 kts 117°
2026-04-23 18:46 52.54341 20.95309 4589 ft 235 kts 161°
2026-04-23 18:46 52.52768 20.95741 4601 ft 227 kts 172°
2026-04-23 18:46 52.51202 20.96084 4584 ft 224 kts 172°
2026-04-23 18:47 52.49672 20.96104 4570 ft 219 kts 199°
2026-04-23 18:47 52.48410 20.94878 4506 ft 211 kts 235°
2026-04-23 18:47 52.47709 20.92820 4090 ft 204 kts 263°
2026-04-23 18:47 52.47464 20.90567 3731 ft 199 kts 271°
2026-04-23 18:48 52.47259 20.88307 3366 ft 201 kts 271°
2026-04-23 18:48 52.47052 20.86033 3005 ft 202 kts 271°
2026-04-23 18:48 52.46846 20.83764 2656 ft 199 kts 271°
2026-04-23 18:48 52.46643 20.81574 2369 ft 188 kts 271°
2026-04-23 18:49 52.46452 20.79517 2107 ft 175 kts 271°
2026-04-23 18:49 52.46278 20.77648 1833 ft 161 kts 271°
2026-04-23 18:49 52.46113 20.75871 1555 ft 152 kts 271°
2026-04-23 18:49 52.45959 20.74197 1363 ft 145 kts 270°
2026-04-23 18:50 52.45860 20.73111 1214 ft 147 kts 269°
2026-04-23 18:50 52.45663 20.70884 935 ft 148 kts 266°
2026-04-23 18:50 52.45495 20.69238 693 ft 145 kts 267°
2026-04-23 18:50 52.45350 20.67632 488 ft 142 kts 265°
2026-04-23 18:51 52.45202 20.66047 350 ft 134 kts 261°
2026-04-23 18:51 52.45084 20.64801 349 ft 90 kts 261°
2026-04-23 18:51 52.45009 20.64392 358 ft 21 kts 196°
2026-04-23 18:51 52.44865 20.64377 350 ft 20 kts 182°
2026-04-23 18:52 52.44736 20.64368 355 ft 13 kts 175°
2026-04-23 18:52 52.44717 20.64499 350 ft 14 kts 81°
2026-04-23 18:52 52.44733 20.64668 350 ft 16 kts 81°
2026-04-23 18:52 52.44751 20.64848 356 ft 16 kts 81°
2026-04-23 18:53 52.44763 20.64970 356 ft 2 kts 80°
2026-04-23 18:53 52.44765 20.64996 350 ft 3 kts 81°
2026-04-23 18:53 52.44771 20.65061 350 ft 9 kts 81°
2026-04-23 18:53 52.44784 20.65189 357 ft 12 kts 84°
2026-04-23 18:54 52.44790 20.65283 349 ft 4 kts 101°
2026-04-23 18:54 52.44777 20.65289 356 ft 2 kts 176°
2026-04-23 18:54 52.44755 20.65273 349 ft 0 kts 210°
2026-04-23 18:54 52.44752 20.65272 349 ft 0 kts 201°